BEIDOU 6

Last updated on Sun Feb 19 2023 00:02:46 GMT+0000 (Coordinated Universal Time)

1 37210U 10057A 23049.58521580 -.00000122 00000+0 00000+0 0 9992 2 37210 0.9936 54.9914 0003392 172.1730 291.8526 1.00270714 45107
UTC large
Height (km)
Speed (km/s)
/
Latitude / Longitude
Inclination (degrees)
Orbital Period (minutes)
Azimuth
Elevation
Range (km)
Doppler Factor

Next 0 passes for location: London (51.5072 / 0.1276)

Sorry there are no passes over London.
BEIDOU 6